Location: Unspecified
(0.0000°N, 0.0000°E)
Time: 02:36:05
(UTC+00:00)

SR - All Passes

Search period start: 30 March 2017 00:00
Search period end: 09 April 2017 00:00
Orbit: 574 x 884 km, 66.7° (Epoch: 28 March)

Date Brightness Start Highest point End Pass type
(mag) Time Alt. Az. Time Alt. Az. Time Alt. Az.
30 Mar - 09:58:48 10° SSW 10:03:22 71° ESE 10:08:22 10° NNE daylight
30 Mar - 20:46:47 10° NE 20:48:51 12° ENE 20:50:51 10° E night (unlit)
30 Mar - 22:25:41 10° NW 22:30:52 43° WSW 22:35:39 10° S night (unlit)
31 Mar - 09:10:20 10° SSE 09:14:07 25° ESE 09:18:09 10° NE daylight
31 Mar - 10:52:57 10° WSW 10:55:58 17° WNW 10:59:08 10° NNW daylight
31 Mar - 21:36:03 10° NNW 21:41:34 73° ENE 21:46:36 10° SSE night (unlit)
01 Apr - 10:02:05 10° SW 10:06:30 44° WNW 10:11:20 10° N daylight
01 Apr - 20:47:28 10° N 20:52:09 28° ENE 20:56:32 10° SE night (unlit)
01 Apr - 22:30:20 10° WNW 22:33:55 18° WSW 22:37:20 10° SSW night (unlit)
02 Apr - 09:12:35 10° SSW 09:17:10 66° ESE 09:22:11 10° NNE daylight
02 Apr - 20:01:08 10° NE 20:02:39 11° ENE 20:04:07 10° E night (unlit)
02 Apr - 21:39:28 10° NW 21:44:40 46° WSW 21:49:28 10° S night (unlit)
03 Apr - 08:24:12 10° SSE 08:27:56 24° ESE 08:31:53 10° NE daylight
03 Apr - 10:06:32 10° WSW 10:09:45 18° WNW 10:13:10 10° NNW daylight
03 Apr - 20:49:54 10° NNW 20:55:22 68° ENE 21:00:22 10° SSE visible
04 Apr - 09:15:48 10° SW 09:20:18 47° WNW 09:25:13 10° N daylight
04 Apr - 20:01:24 10° NNE 20:05:57 27° ENE 20:10:13 10° SE visible
04 Apr - 21:44:01 10° WNW 21:47:44 19° WSW 21:51:16 10° SSW night (unlit)
05 Apr - 08:26:23 10° S 08:30:58 61° ESE 08:36:00 10° NNE daylight
05 Apr - 19:15:56 10° ENE 19:16:26 10° ENE 19:16:56 10° ENE visible
05 Apr - 20:53:15 10° NW 20:58:29 49° WSW 21:03:17 10° S visible
06 Apr - 07:38:06 10° SSE 07:41:43 22° ESE 07:45:35 10° ENE daylight
06 Apr - 09:20:07 10° WSW 09:23:33 19° WNW 09:27:10 10° NNW daylight
06 Apr - 20:03:46 10° N 20:09:10 63° ENE 20:14:08 10° SSE visible
07 Apr - 08:29:31 10° SW 08:34:05 51° WNW 08:39:05 10° N daylight
07 Apr - 19:15:21 10° NNE 19:19:45 25° ENE 19:23:52 10° ESE visible
07 Apr - 20:57:41 10° WNW 21:01:33 20° WSW 21:05:11 10° SSW visible
08 Apr - 07:40:11 10° S 07:44:46 57° ESE 07:49:47 10° NNE daylight
08 Apr - 20:07:03 10° NNW 20:12:18 52° WSW 20:17:07 10° S visible
